Blythe, CA

8:58 PM PDT on August 30, 2016 (GMT -0700)
Blythe

Weather History for KBLH - January, 2014

Change the Weather History Date:

Friday, January 3, 2014

  Actual Average Record
Temperature  
Mean Temperature 56 °F -  
Max Temperature 70 °F 65 °F 77 °F (1997)
Min Temperature 41 °F 41 °F 25 °F (1974)
Degree Days  
Heating Degree Days 10    
Growing Degree Days 6 (Base 50)    
Moisture  
Dew Point 26 °F    
Average Humidity 35    
Maximum Humidity 49    
Minimum Humidity 19    
Precipitation  
Precipitation 0.00 in - - ()
Sea Level Pressure  
Sea Level Pressure 29.98 in    
Wind  
Wind Speed 3 mph (West)    
Max Wind Speed 8 mph    
Max Gust Speed -    
Visibility 10 miles    
Events      
Averages and records for this station are not official NWS values.
T = Trace of Precipitation, MM = Missing Value Source: NWS Daily Summary

Daily Weather History Graph

Daily Weather History Graph

Search for Another Location

Airport or City:

Trip Planner

Search our weather history database for the weather conditions in past years. The results will help you decide how hot, cold, wet, or windy it might be!

Date:

Astronomy

Jan. 03, 2014 Rise Set
Actual Time 6:43 AM PST 4:43 PM PST
Civil Twilight 6:16 AM PST 5:10 PM PST
Nautical Twilight 5:45 AM PST 5:41 PM PST
Astronomical Twilight 5:15 AM PST 6:12 PM PST
Moon 8:21 AM PST (1/3) 7:47 PM PST (1/3)
Length of Visible Light 10h 54m
Length of Day
9h 59m
Waxing Crescent, 8% of the Moon is Illuminated
Jan 3
Waxing Crescent
Jan 7
First Quarter
Jan 15
Full
Jan 23
Last Quarter
Jan 30
New

Hourly Weather History & Observations

Time (PST) Temp. Windchill Dew Point Humidity Pressure Visibility Wind Dir Wind Speed Gust Speed Precip Events Conditions
12:52 AM 51.1 °F - 24.1 °F 35% 30.03 in 10.0 mi WSW 5.8 mph - N/A   Clear
1:52 AM 48.0 °F - 24.1 °F 39% 30.04 in 10.0 mi West 3.5 mph - N/A   Clear
2:52 AM 45.0 °F - 24.1 °F 44% 30.03 in 10.0 mi Calm Calm - N/A   Clear
3:52 AM 45.0 °F 43.5 °F 24.1 °F 44% 30.02 in 10.0 mi NNW 3.5 mph - N/A   Clear
4:52 AM 44.1 °F 42.5 °F 23.0 °F 43% 30.01 in 10.0 mi WSW 3.5 mph - N/A   Clear
5:52 AM 42.1 °F - 23.0 °F 47% 30.01 in 10.0 mi Calm Calm - N/A   Clear
6:52 AM 41.0 °F - 23.0 °F 49% 30.04 in 10.0 mi Calm Calm - N/A   Clear
7:52 AM 45.0 °F 42.6 °F 24.1 °F 44% 30.05 in 10.0 mi NW 4.6 mph - N/A   Clear
8:52 AM 53.1 °F - 24.1 °F 32% 30.06 in 10.0 mi Calm Calm - N/A   Clear
9:52 AM 57.9 °F - 24.1 °F 27% 30.06 in 10.0 mi SW 5.8 mph - N/A   Clear
10:52 AM 62.1 °F - 24.1 °F 23% 30.03 in 10.0 mi Calm Calm - N/A   Clear
11:52 AM 64.9 °F - 26.1 °F 23% 29.98 in 10.0 mi Calm Calm - N/A   Clear
12:52 PM 68.0 °F - 26.1 °F 21% 29.95 in 10.0 mi Variable 3.5 mph - N/A   Clear
1:52 PM 70.0 °F - 26.1 °F 19% 29.94 in 10.0 mi Calm Calm - N/A   Clear
2:52 PM 70.0 °F - 27.0 °F 20% 29.92 in 10.0 mi ESE 3.5 mph - N/A   Clear
3:52 PM 69.1 °F - 28.9 °F 22% 29.91 in 10.0 mi ESE 3.5 mph - N/A   Clear
4:52 PM 64.9 °F - 30.9 °F 28% 29.91 in 10.0 mi South 3.5 mph - N/A   Clear
5:52 PM 60.1 °F - 30.9 °F 33% 29.91 in 10.0 mi WSW 3.5 mph - N/A   Clear
6:52 PM 57.9 °F - 30.9 °F 36% 29.91 in 10.0 mi SW 5.8 mph - N/A   Clear
7:52 PM 52.0 °F - 28.0 °F 40% 29.92 in 10.0 mi North 3.5 mph - N/A   Clear
8:52 PM 52.0 °F - 28.0 °F 40% 29.92 in 10.0 mi NNW 8.1 mph - N/A   Clear
9:52 PM 48.9 °F - 28.0 °F 44% 29.93 in 10.0 mi NE 4.6 mph - N/A   Clear
10:52 PM 48.9 °F - 27.0 °F 43% 29.93 in 10.0 mi NW 3.5 mph - N/A   Clear
11:52 PM 48.0 °F - 27.0 °F 44% 29.91 in 10.0 mi North 6.9 mph - N/A   Clear